Galesburg, IL

12:21 AM CDT on March 24, 2017 (GMT -0500)
Galesburg Municipal

Weather History for KGBG - November, 2010

Change the Weather History Date:

Wednesday, November 24, 2010

  Actual Average Record
Temperature  
Mean Temperature 32 °F -  
Max Temperature 39 °F 43 °F 66 °F (1966)
Min Temperature 24 °F 26 °F 0 °F (1950)
Degree Days  
Heating Degree Days 34    
Moisture  
Dew Point 30 °F    
Average Humidity 87    
Maximum Humidity 100    
Minimum Humidity 69    
Precipitation  
Precipitation 0.10 in - - ()
Sea Level Pressure  
Sea Level Pressure 29.89 in    
Wind  
Wind Speed 11 mph (SE)    
Max Wind Speed 22 mph    
Max Gust Speed 34 mph    
Visibility 7 miles    
Events Fog , Rain , Snow , Thunderstorm    
Averages and records for this station are not official NWS values.
T = Trace of Precipitation, MM = Missing Value Source: NWS Daily Summary

Daily Weather History Graph

Daily Weather History Graph

Search for Another Location

Airport or City:

Trip Planner

Search our weather history database for the weather conditions in past years. The results will help you decide how hot, cold, wet, or windy it might be!

Date:

Astronomy

Nov. 24, 2010 Rise Set
Actual Time 6:59 AM CST 4:37 PM CST
Civil Twilight 6:29 AM CST 5:07 PM CST
Nautical Twilight 5:55 AM CST 5:40 PM CST
Astronomical Twilight 5:22 AM CST 6:13 PM CST
Moon 7:24 PM CST 9:47 AM CST
Length of Visible Light 10h 37m
Length of Day
9h 37m
Waning Gibbous, 90% of the Moon is Illuminated
Nov 24
Waning Gibbous
Nov 28
Last Quarter
Dec 5
New
Dec 13
First Quarter
Dec 21
Full

Hourly Weather History & Observations

Time (CST) Temp. Windchill Dew Point Humidity Pressure Visibility Wind Dir Wind Speed Gust Speed Precip Events Conditions
12:05 AM 24.8 °F 17.9 °F 19.4 °F 80% 30.24 in 10.0 mi ESE 5.8 mph - N/A   Clear
12:25 AM 24.8 °F 16.1 °F 19.4 °F 80% 30.23 in 10.0 mi East 8.1 mph - N/A   Clear
12:45 AM 24.8 °F 16.1 °F 21.2 °F 86% 30.23 in 10.0 mi ESE 8.1 mph - N/A   Clear
1:05 AM 26.6 °F 17.5 °F 21.2 °F 80% 30.23 in 10.0 mi East 9.2 mph - N/A   Clear
1:25 AM 26.6 °F 15.7 °F 21.2 °F 80% 30.21 in 10.0 mi East 12.7 mph 16.1 mph N/A   Clear
1:45 AM 26.6 °F 16.2 °F 21.2 °F 80% 30.19 in 10.0 mi East 11.5 mph 17.3 mph N/A   Clear
2:05 AM 26.6 °F 16.2 °F 21.2 °F 80% 30.18 in 10.0 mi East 11.5 mph 17.3 mph N/A   Clear
2:25 AM 26.6 °F 16.2 °F 21.2 °F 80% 30.16 in 10.0 mi ESE 11.5 mph 19.6 mph N/A   Clear
2:45 AM 26.6 °F 15.7 °F 21.2 °F 80% 30.15 in 10.0 mi ESE 12.7 mph 20.7 mph N/A   Clear
3:05 AM 26.6 °F 15.2 °F 21.2 °F 80% 30.14 in 10.0 mi ESE 13.8 mph 18.4 mph N/A   Clear
3:25 AM 26.6 °F 15.7 °F 21.2 °F 80% 30.13 in 10.0 mi ESE 12.7 mph 16.1 mph N/A   Clear
3:45 AM 26.6 °F 16.2 °F 21.2 °F 80% 30.13 in 10.0 mi ESE 11.5 mph - N/A   Clear
4:05 AM 26.6 °F 15.7 °F 21.2 °F 80% 30.11 in 10.0 mi East 12.7 mph 18.4 mph N/A   Scattered Clouds
4:25 AM 28.4 °F 19.1 °F 21.2 °F 74% 30.13 in 10.0 mi ESE 10.4 mph 18.4 mph N/A   Mostly Cloudy
4:45 AM 28.4 °F 18.0 °F 21.2 °F 74% 30.12 in 10.0 mi ESE 12.7 mph 17.3 mph N/A   Overcast
5:05 AM 28.4 °F 17.5 °F 21.2 °F 74% 30.11 in 10.0 mi ESE 13.8 mph 21.9 mph N/A   Overcast
5:25 AM 28.4 °F 18.0 °F 21.2 °F 74% 30.11 in 10.0 mi ESE 12.7 mph 19.6 mph N/A   Overcast
5:45 AM 30.2 °F 21.3 °F 21.2 °F 69% 30.10 in 10.0 mi ESE 10.4 mph 20.7 mph N/A   Overcast
6:05 AM 30.2 °F 19.8 °F 23.0 °F 75% 30.08 in 10.0 mi ESE 13.8 mph 20.7 mph N/A   Mostly Cloudy
6:25 AM 30.2 °F 19.3 °F 23.0 °F 75% 30.09 in 10.0 mi ESE 15.0 mph 20.7 mph N/A   Overcast
6:45 AM 30.2 °F 18.9 °F 23.0 °F 75% 30.05 in 10.0 mi ESE 16.1 mph 25.3 mph N/A   Scattered Clouds
7:05 AM 30.2 °F 18.5 °F 23.0 °F 75% 30.03 in 10.0 mi ESE 17.3 mph 25.3 mph N/A   Clear
7:25 AM 30.2 °F 20.8 °F 24.8 °F 80% 30.05 in 10.0 mi ESE 11.5 mph 25.3 mph N/A   Scattered Clouds
7:45 AM 32.0 °F 22.1 °F 24.8 °F 75% 30.06 in 10.0 mi ESE 13.8 mph 20.7 mph N/A   Overcast
8:05 AM 32.0 °F 21.2 °F 24.8 °F 75% 30.03 in 10.0 mi ESE 16.1 mph 21.9 mph N/A   Overcast
8:25 AM 33.8 °F 25.8 °F 24.8 °F 70% 30.04 in 10.0 mi ESE 10.4 mph 24.2 mph N/A   Mostly Cloudy
8:45 AM 33.8 °F 24.3 °F 24.8 °F 70% 30.02 in 10.0 mi ESE 13.8 mph 23.0 mph N/A   Overcast
9:05 AM 33.8 °F 24.8 °F 24.8 °F 70% 30.02 in 10.0 mi SE 12.7 mph 21.9 mph N/A   Overcast
9:25 AM 33.8 °F 23.5 °F 26.6 °F 75% 30.01 in 5.0 mi ESE 16.1 mph 25.3 mph N/A   Overcast
9:45 AM 32.0 °F 19.5 °F 26.6 °F 80% 29.97 in 10.0 mi SE 21.9 mph 33.4 mph N/A   Overcast
10:05 AM 33.8 °F 23.2 °F 28.4 °F 81% 29.99 in 10.0 mi SE 17.3 mph 20.7 mph N/A   Overcast
10:25 AM 33.8 °F 23.5 °F 28.4 °F 81% 29.95 in 10.0 mi ESE 16.1 mph 25.3 mph N/A   Overcast
10:45 AM 33.8 °F 24.3 °F 28.4 °F 81% 29.94 in 10.0 mi ESE 13.8 mph 20.7 mph N/A   Overcast
11:05 AM 33.8 °F 24.8 °F 30.2 °F 87% 29.95 in 10.0 mi SE 12.7 mph 23.0 mph N/A   Overcast
11:25 AM 33.8 °F 25.3 °F 30.2 °F 87% 29.94 in 10.0 mi SE 11.5 mph 16.1 mph N/A   Overcast
11:45 AM 33.8 °F 27.0 °F 30.2 °F 87% 29.93 in 10.0 mi SE 8.1 mph - N/A   Overcast
12:05 PM 35.6 °F 24.8 °F 30.2 °F 81% 29.87 in 3.0 mi SE 19.6 mph 28.8 mph 0.01 in Snow Snow
12:25 PM 33.8 °F 22.5 °F 32.0 °F 93% 29.81 in 3.0 mi ESE 19.6 mph 33.4 mph 0.03 in Snow Light Snow
12:45 PM 35.6 °F 26.6 °F 33.8 °F 93% 29.80 in 5.0 mi SE 13.8 mph 27.6 mph 0.04 in   Overcast
1:05 PM 35.6 °F 24.8 °F 33.8 °F 93% 29.78 in 7.0 mi ESE 19.6 mph 29.9 mph N/A   Overcast
1:25 PM 35.6 °F 25.2 °F 33.8 °F 93% 29.76 in 7.0 mi SE 18.4 mph 29.9 mph N/A   Overcast
1:45 PM 37.4 °F 28.2 °F 35.6 °F 93% 29.79 in 10.0 mi SSE 16.1 mph 24.2 mph N/A   Overcast
2:05 PM 37.4 °F 27.8 °F 35.6 °F 93% 29.77 in 5.0 mi SSE 17.3 mph 28.8 mph N/A Rain Light Rain
2:25 PM 37.4 °F 27.5 °F 35.6 °F 93% 29.74 in 7.0 mi SE 18.4 mph 34.5 mph 0.02 in Rain Light Rain
2:45 PM 37.4 °F 26.9 °F 35.6 °F 93% 29.70 in 7.0 mi SE 20.7 mph 33.4 mph 0.02 in Rain Light Rain
3:05 PM 37.4 °F 27.2 °F 35.6 °F 93% 29.72 in 7.0 mi SE 19.6 mph 27.6 mph N/A Thunderstorm Overcast
3:25 PM 37.4 °F 28.2 °F 35.6 °F 93% 29.72 in 7.0 mi SSE 16.1 mph 28.8 mph N/A   Overcast
3:45 PM 37.4 °F 28.9 °F 35.6 °F 93% 29.73 in 5.0 mi SE 13.8 mph 24.2 mph N/A Rain Light Rain
4:05 PM 37.4 °F 29.3 °F 35.6 °F 93% 29.72 in 10.0 mi SE 12.7 mph 19.6 mph 0.02 in Rain Light Rain
4:25 PM 37.4 °F 28.5 °F 35.6 °F 93% 29.71 in 5.0 mi SE 15.0 mph 27.6 mph 0.02 in Rain Light Rain
4:45 PM 37.4 °F 29.8 °F 35.6 °F 93% 29.70 in 7.0 mi SE 11.5 mph 26.5 mph 0.02 in Thunderstorm Thunderstorm
5:05 PM 37.4 °F 27.5 °F 35.6 °F 93% 29.69 in 7.0 mi SE 18.4 mph 26.5 mph N/A Rain , Thunderstorm Light Thunderstorms and Rain
5:25 PM 37.4 °F 28.5 °F 35.6 °F 93% 29.68 in 5.0 mi SE 15.0 mph 24.2 mph 0.01 in Rain Light Rain
5:45 PM 37.4 °F 28.2 °F 35.6 °F 93% 29.68 in 5.0 mi SE 16.1 mph 23.0 mph 0.01 in Rain Light Rain
6:05 PM 37.4 °F 29.3 °F 35.6 °F 93% 29.68 in 5.0 mi SE 12.7 mph 19.6 mph N/A   Drizzle
6:25 PM 37.4 °F 29.8 °F 35.6 °F 93% 29.68 in 4.0 mi SE 11.5 mph 21.9 mph N/A   Overcast
6:45 PM 37.4 °F 29.3 °F 37.4 °F 100% 29.67 in 3.0 mi SE 12.7 mph 19.6 mph N/A   Overcast
7:05 PM 37.4 °F 28.9 °F 37.4 °F 100% 29.66 in 3.0 mi SE 13.8 mph 17.3 mph N/A   Overcast
7:25 PM 37.4 °F 29.8 °F 37.4 °F 100% 29.65 in 2.5 mi SE 11.5 mph 19.6 mph N/A Rain Rain
7:45 PM 37.4 °F 29.8 °F 37.4 °F 100% 29.65 in 5.0 mi SE 11.5 mph 17.3 mph 0.01 in Rain Light Rain
8:05 PM 37.4 °F 31.4 °F 37.4 °F 100% 29.64 in 7.0 mi SE 8.1 mph 16.1 mph N/A   Overcast
8:25 PM 37.4 °F 30.8 °F 37.4 °F 100% 29.65 in 7.0 mi SE 9.2 mph - N/A   Overcast
8:45 PM 39.2 °F - 37.4 °F 93% 29.67 in 5.0 mi Calm Calm - N/A   Overcast
9:05 PM 39.2 °F 35.9 °F 37.4 °F 93% 29.66 in 4.0 mi SE 4.6 mph - N/A   Overcast
9:25 PM 39.2 °F 35.9 °F 37.4 °F 93% 29.66 in 3.0 mi SE 4.6 mph - N/A   Light Drizzle
9:45 PM 39.2 °F - 37.4 °F 93% 29.66 in 2.0 mi Calm Calm - N/A   Overcast
10:05 PM 39.2 °F - 39.2 °F 100% 29.66 in 2.0 mi Calm Calm - N/A   Overcast
10:25 PM 39.2 °F - 39.2 °F 100% 29.66 in 1.2 mi Calm Calm - N/A   Overcast
10:45 PM 39.2 °F - 39.2 °F 100% 29.66 in 1.0 mi Calm Calm - N/A   Overcast
11:05 PM 39.2 °F - 39.2 °F 100% 29.66 in 0.8 mi Calm Calm - N/A   Overcast
11:25 PM 39.2 °F - 39.2 °F 100% 29.67 in 0.5 mi Calm Calm - N/A Fog Fog
11:45 PM 39.2 °F - 39.2 °F 100% 29.68 in 0.5 mi Calm Calm - N/A Fog Fog